Home > Weather > Flint > Past weeks

Flag for USA Past Weather in Flint, Michigan, USA — Yesterday and Last 2 Weeks

Now
46 °F

Clear.


Feels Like: 46 °F
Forecast: 49 / 80 °F
Wind: No wind

Location: Bishop International Airport

Current Time: Jun 29, 2016 at 3:24:04 AM

Latest Report: Jun 29, 2016 at 2:53 AM


Visibility: 10 mi

Pressure: 30.09 "Hg

Humidity: 86%

Dew Point: 42 °F

Location of FlintLocation

Past Weather in Flint — Graph

°F

Flint Temperature Yesterday

Maximum temperature yesterday: 72 °F (at 12:53 AM)
Minimum temperature yesterday: 54 °F (at 11:53 PM)
Average temperature yesterday: 65 °F

High & Low Weather Summary for the Past Weeks

 TemperatureHumidityPressure
High94 °F (Jun 27, 2:53 PM)87% (Jun 17, 4:53 AM)30.26 "Hg (Jun 17, 4:53 AM)
Low51 °F (Jun 29, 1:53 AM)22% (Jun 27, 3:53 PM)29.65 "Hg (Jun 16, 4:53 AM)
Average74 °F52%29.98 "Hg
* Reported Jun 14 1:53 AM — Jun 29 1:53 AM, Flint, Weather by CustomWeather, © 2016

Note: Actual official high and low records may vary slightly from our data, if they occured in-between our weather recording intervals... More about our weather records

Advertising

Flint Weather History for the Previous 24 Hours

Scroll right to see more
 ConditionsComfort  
Time TempWeatherWind HumidityBarometerVisibility
1:53 AM
Wed, Jun 29
51 °FClear.3 mph80%30.09 "Hg10 mi
12:53 AM52 °FClear.3 mph83%30.09 "Hg10 mi
11:53 PM
Tue, Jun 28
54 °FClear.No wind77%30.09 "Hg10 mi
10:53 PM57 °FClear.No wind72%30.09 "Hg10 mi
9:53 PM64 °FSunny.5 mph52%30.07 "Hg10 mi
8:53 PM66 °FPartly sunny.6 mph49%30.07 "Hg10 mi
7:53 PM68 °FOvercast.6 mph42%30.07 "Hg10 mi
6:53 PM69 °FOvercast.9 mph45%30.07 "Hg10 mi
5:53 PM69 °FMore clouds than sun.9 mph49%30.07 "Hg10 mi
4:53 PM68 °FMore clouds than sun.8 mph57%30.08 "Hg10 mi
3:53 PM66 °FOvercast.10 mph65%30.08 "Hg10 mi
2:53 PM67 °FOvercast.10 mph61%30.09 "Hg10 mi
1:53 PM68 °FCloudy.9 mph59%30.08 "Hg10 mi
12:53 PM64 °FOvercast.12 mph65%30.09 "Hg10 mi
11:53 AM65 °FOvercast.10 mph61%30.08 "Hg10 mi
10:53 AM63 °FOvercast.10 mph63%30.07 "Hg10 mi
9:53 AM64 °FOvercast.13 mph61%30.08 "Hg10 mi
8:53 AM62 °FOvercast.9 mph65%30.07 "Hg10 mi
7:53 AM61 °FPartly sunny.14 mph67%30.06 "Hg10 mi
6:53 AM62 °FOvercast.12 mph65%30.04 "Hg10 mi
5:53 AM64 °FMostly cloudy.13 mph58%30.03 "Hg10 mi
5:04 AM66 °FMostly cloudy.10 mph63%30.03 "Hg10 mi
4:53 AM66 °FOvercast.8 mph65%30.01 "Hg10 mi
3:53 AM67 °FMostly cloudy.8 mph63%30.00 "Hg10 mi
Weather by CustomWeather, © 2016

See weather overviewHow to use our weather pages